Date,TemperatureHighF,TemperatureAvgF,TemperatureLowF,DewpointHighF,DewpointAvgF,DewpointLowF,HumidityHigh,HumidityAvg,HumidityLow,PressureMaxIn,PressureMinIn,WindSpeedMaxMPH,WindSpeedAvgMPH,GustSpeedMaxMPH,PrecipitationSumIn
2013-1-1,31,24,11,29,20,8,91,83,70,30.17,30.04,5,1,8,0.01
2013-1-2,20,13,5,16,9,2,93,85,76,30.27,30.15,6,2,9,0.00
2013-1-3,29,20,6,25,15,2,88,80,74,30.27,30.18,9,4,16,0.00
2013-1-4,27,22,14,22,17,11,89,83,75,30.29,30.21,10,5,20,0.00
2013-1-5,33,26,16,30,22,14,94,88,79,30.33,30.10,7,2,12,0.01
2013-1-6,35,31,26,32,28,23,92,88,83,30.33,29.97,13,5,19,0.01
2013-1-7,33,27,19,28,24,17,94,87,79,30.45,30.21,10,3,17,0.00
2013-1-8,39,28,21,31,24,18,92,85,72,30.30,30.20,5,1,9,0.02
2013-1-9,43,37,27,35,32,24,91,82,71,30.52,30.12,10,4,19,0.01
2013-1-10,38,31,23,34,29,21,95,90,80,30.55,30.12,11,4,14,0.05
2013-1-11,57,46,36,53,44,34,97,92,81,30.12,29.79,13,4,20,0.56
2013-1-12,59,51,45,54,48,43,97,91,82,29.95,29.73,7,2,13,0.34
2013-1-13,51,39,29,50,38,26,97,95,92,30.12,29.71,13,5,18,1.38
2013-1-14,29,22,19,27,19,16,91,87,81,30.48,30.11,14,5,21,0.04
2013-1-15,27,22,16,23,19,14,93,86,77,30.46,30.16,8,2,14,0.00
2013-1-16,36,28,21,28,23,18,93,81,63,30.17,29.92,10,3,19,0.00
2013-1-17,39,30,20,31,25,15,93,79,60,30.38,30.03,13,5,21,0.00
2013-1-18,37,28,19,27,21,15,85,74,61,30.48,30.07,13,5,23,0.00
2013-1-19,48,41,36,36,31,26,78,68,59,30.07,29.74,13,6,23,0.00
2013-1-20,43,24,16,36,16,11,81,70,53,30.24,29.74,22,10,36,0.00
2013-1-21,19,15,8,12,6,-3,79,67,55,30.22,30.08,18,9,26,0.00
2013-1-22,14,8,4,1,-1,-3,74,64,51,30.38,30.22,11,7,21,0.00
2013-1-23,18,14,7,15,5,-1,88,69,54,30.37,30.12,10,4,16,0.00
2013-1-24,21,15,5,15,7,2,88,72,51,30.65,30.14,11,4,20,0.00
2013-1-25,23,20,17,21,15,10,91,82,71,30.51,30.05,8,4,12,0.00
2013-1-26,27,23,15,22,19,12,92,83,68,30.48,30.09,8,3,13,0.00
2013-1-27,32,24,13,30,20,11,94,86,78,30.48,30.13,10,4,15,0.00
2013-1-28,47,42,32,46,41,30,98,96,93,30.14,29.93,7,3,14,0.17
2013-1-29,59,53,39,56,51,38,98,94,88,29.99,29.43,14,5,24,0.08
2013-1-30,61,48,30,58,46,26,97,92,84,29.43,29.18,20,7,29,0.43
2013-1-31,30,20,13,26,14,7,91,77,66,30.02,29.41,17,12,28,0.06